Time,TemperatureF,DewpointF,PressureIn,WindDirection,WindDirectionDegrees,WindSpeedMPH,WindSpeedGustMPH,Humidity,HourlyPrecipIn,Conditions,Clouds,dailyrainin,SoftwareType,DateUTC
2013-01-26 00:02:00,30.4,23.1,30.31,West,270,0.0,0.0,74,0.00,CLR,SKC,0.00,WeatherDisplay:10.37,2013-01-26 06:02:00,
2013-01-26 00:07:00,30.3,23.0,30.31,West,270,0.0,0.0,74,0.00,CLR,SKC,0.00,WeatherDisplay:10.37,2013-01-26 06:07:00,
2013-01-26 00:12:00,30.5,23.2,30.31,West,270,0.0,0.0,74,0.00,CLR,SKC,0.00,WeatherDisplay:10.37,2013-01-26 06:12:00,
2013-01-26 00:17:00,30.3,22.4,30.31,West,270,0.0,0.0,72,0.00,CLR,SKC,0.00,WeatherDisplay:10.37,2013-01-26 06:17:00,
2013-01-26 00:22:00,29.9,22.3,30.31,West,270,0.0,0.0,73,0.00,CLR,SKC,0.00,WeatherDisplay:10.37,2013-01-26 06:22:00,
2013-01-26 00:27:00,29.5,22.2,30.31,West,270,0.0,0.0,74,0.00,CLR,SKC,0.00,WeatherDisplay:10.37,2013-01-26 06:27:00,
2013-01-26 00:32:00,29.4,22.7,30.31,West,270,0.0,0.0,76,0.00,CLR,SKC,0.00,WeatherDisplay:10.37,2013-01-26 06:32:00,
2013-01-26 00:37:00,29.5,22.9,30.31,West,270,0.0,0.0,76,0.00,CLR,SKC,0.00,WeatherDisplay:10.37,2013-01-26 06:37:00,
2013-01-26 00:42:00,29.5,22.5,30.31,West,270,0.0,0.0,75,0.00,CLR,SKC,0.00,WeatherDisplay:10.37,2013-01-26 06:42:00,
2013-01-26 00:47:00,29.4,22.8,30.31,West,270,0.0,0.0,76,0.00,CLR,SKC,0.00,WeatherDisplay:10.37,2013-01-26 06:47:00,
2013-01-26 00:52:00,29.9,22.9,30.31,West,270,0.0,2.0,75,0.00,CLR,SKC,0.00,WeatherDisplay:10.37,2013-01-26 06:52:00,
2013-01-26 00:57:00,29.9,23.0,30.31,West,270,0.0,0.0,75,0.00,CLR,SKC,0.00,WeatherDisplay:10.37,2013-01-26 06:57:00,
2013-01-26 01:02:00,29.7,22.8,30.31,West,270,0.0,0.0,75,0.00,CLR,SKC,0.00,WeatherDisplay:10.37,2013-01-26 07:02:00,
2013-01-26 01:07:00,29.6,23.0,30.31,West,270,0.0,0.0,76,0.00,CLR,SKC,0.00,WeatherDisplay:10.37,2013-01-26 07:07:00,
2013-01-26 01:12:00,29.7,23.1,30.31,West,270,0.0,2.0,76,0.00,CLR,SKC,0.00,WeatherDisplay:10.37,2013-01-26 07:12:00,
2013-01-26 01:17:00,29.7,22.8,30.30,West,270,0.0,0.0,75,0.00,CLR,SKC,0.00,WeatherDisplay:10.37,2013-01-26 07:17:00,
2013-01-26 01:22:00,29.7,22.8,30.30,West,270,0.0,0.0,75,0.00,CLR,SKC,0.00,WeatherDisplay:10.37,2013-01-26 07:22:00,
2013-01-26 01:27:00,29.8,23.2,30.30,West,270,0.0,0.0,76,0.00,CLR,SKC,0.00,WeatherDisplay:10.37,2013-01-26 07:27:00,
2013-01-26 01:32:00,30.1,23.4,30.30,West,270,0.0,0.0,76,0.00,CLR,SKC,0.00,WeatherDisplay:10.37,2013-01-26 07:32:00,
2013-01-26 01:37:00,30.3,23.3,30.30,West,270,0.0,0.0,75,0.00,CLR,SKC,0.00,WeatherDisplay:10.37,2013-01-26 07:37:00,
2013-01-26 01:42:00,30.4,23.4,30.30,West,270,0.0,0.0,75,0.00,CLR,SKC,0.00,WeatherDisplay:10.37,2013-01-26 07:42:00,
2013-01-26 01:47:00,30.9,23.6,30.30,West,270,0.0,0.0,74,0.00,CLR,SKC,0.00,WeatherDisplay:10.37,2013-01-26 07:47:00,
2013-01-26 01:52:00,31.1,23.8,30.30,West,270,0.0,0.0,74,0.00,CLR,SKC,0.00,WeatherDisplay:10.37,2013-01-26 07:52:00,
2013-01-26 01:57:00,31.0,23.4,30.30,West,270,0.0,0.0,73,0.00,CLR,SKC,0.00,WeatherDisplay:10.37,2013-01-26 07:57:00,
2013-01-26 02:02:00,30.8,23.5,30.31,West,270,0.0,0.0,74,0.00,CLR,SKC,0.00,WeatherDisplay:10.37,2013-01-26 08:02:00,
2013-01-26 02:07:00,30.9,23.6,30.30,West,270,0.0,0.0,74,0.00,CLR,SKC,0.00,WeatherDisplay:10.37,2013-01-26 08:07:00,
2013-01-26 02:12:00,31.1,23.8,30.31,West,270,0.0,0.0,74,0.00,CLR,SKC,0.00,WeatherDisplay:10.37,2013-01-26 08:12:00,
2013-01-26 02:17:00,31.2,23.9,30.30,West,270,0.0,0.0,74,0.00,CLR,SKC,0.00,WeatherDisplay:10.37,2013-01-26 08:17:00,
2013-01-26 02:22:00,31.8,23.8,30.31,West,270,0.0,0.0,72,0.00,CLR,SKC,0.00,WeatherDisplay:10.37,2013-01-26 08:22:00,
2013-01-26 02:27:00,32.0,23.7,30.31,West,270,0.0,0.0,71,0.00,CLR,SKC,0.00,WeatherDisplay:10.37,2013-01-26 08:27:00,
2013-01-26 02:32:00,31.8,23.5,30.31,West,270,0.0,0.0,71,0.00,CLR,SKC,0.00,WeatherDisplay:10.37,2013-01-26 08:32:00,
2013-01-26 02:37:00,31.5,23.2,30.31,West,270,0.0,0.0,71,0.00,CLR,SKC,0.00,WeatherDisplay:10.37,2013-01-26 08:37:00,
2013-01-26 02:42:00,31.4,23.5,30.30,West,270,0.0,0.0,72,0.00,CLR,SKC,0.00,WeatherDisplay:10.37,2013-01-26 08:42:00,
2013-01-26 02:47:00,31.4,23.4,30.31,West,270,0.0,0.0,72,0.00,CLR,SKC,0.00,WeatherDisplay:10.37,2013-01-26 08:47:00,
2013-01-26 02:52:00,31.2,23.5,30.31,West,270,0.0,0.0,73,0.00,CLR,SKC,0.00,WeatherDisplay:10.37,2013-01-26 08:52:00,
2013-01-26 02:57:00,31.1,23.5,30.31,West,270,0.0,0.0,73,0.00,CLR,SKC,0.00,WeatherDisplay:10.37,2013-01-26 08:57:00,
2013-01-26 03:02:00,31.1,23.8,30.31,West,270,0.0,0.0,74,0.00,CLR,SKC,0.00,WeatherDisplay:10.37,2013-01-26 09:02:00,
2013-01-26 03:07:00,31.4,23.8,30.31,West,270,0.0,0.0,73,0.00,CLR,SKC,0.00,WeatherDisplay:10.37,2013-01-26 09:07:00,
2013-01-26 03:12:00,31.6,24.0,30.31,West,270,0.0,0.0,73,0.00,CLR,SKC,0.00,WeatherDisplay:10.37,2013-01-26 09:12:00,
2013-01-26 03:17:00,31.9,23.9,30.31,West,270,0.0,0.0,72,0.00,CLR,SKC,0.00,WeatherDisplay:10.37,2013-01-26 09:17:00,
2013-01-26 03:22:00,32.1,23.8,30.30,West,270,0.0,0.0,71,0.00,CLR,SKC,0.00,WeatherDisplay:10.37,2013-01-26 09:22:00,
2013-01-26 03:27:00,32.1,24.4,30.30,West,270,0.0,0.0,73,0.00,CLR,SKC,0.00,WeatherDisplay:10.37,2013-01-26 09:27:00,
2013-01-26 03:32:00,32.0,24.3,30.30,West,270,0.0,0.0,73,0.00,CLR,SKC,0.00,WeatherDisplay:10.37,2013-01-26 09:32:00,
2013-01-26 03:37:00,31.7,23.7,30.30,West,270,0.0,0.0,72,0.00,CLR,SKC,0.00,WeatherDisplay:10.37,2013-01-26 09:37:00,
2013-01-26 03:42:00,31.6,23.9,30.31,West,270,0.0,0.0,73,0.00,CLR,SKC,0.00,WeatherDisplay:10.37,2013-01-26 09:42:00,
2013-01-26 03:47:00,31.6,24.0,30.30,West,270,0.0,2.0,73,0.00,CLR,SKC,0.00,WeatherDisplay:10.37,2013-01-26 09:47:00,
2013-01-26 03:52:00,31.9,24.2,30.30,West,270,0.0,0.0,73,0.00,CLR,SKC,0.00,WeatherDisplay:10.37,2013-01-26 09:52:00,
2013-01-26 03:57:00,32.0,24.3,30.30,West,270,0.0,0.0,73,0.00,CLR,SKC,0.00,WeatherDisplay:10.37,2013-01-26 09:57:00,
2013-01-26 04:02:00,32.0,23.9,30.31,West,270,0.0,0.0,72,0.00,CLR,SKC,0.00,WeatherDisplay:10.37,2013-01-26 10:02:00,
2013-01-26 04:07:00,31.8,23.8,30.30,West,270,0.0,0.0,72,0.00,CLR,SKC,0.00,WeatherDisplay:10.37,2013-01-26 10:07:00,
2013-01-26 04:12:00,31.8,24.1,30.30,West,270,0.0,0.0,73,0.00,CLR,SKC,0.00,WeatherDisplay:10.37,2013-01-26 10:12:00,
2013-01-26 04:17:00,31.7,24.0,30.30,West,270,0.0,0.0,73,0.00,CLR,SKC,0.00,WeatherDisplay:10.37,2013-01-26 10:17:00,
2013-01-26 04:22:00,31.6,23.9,30.30,West,270,0.0,0.0,73,0.00,CLR,SKC,0.00,WeatherDisplay:10.37,2013-01-26 10:22:00,
2013-01-26 04:27:00,31.5,23.9,30.31,West,270,0.0,2.0,73,0.00,CLR,SKC,0.00,WeatherDisplay:10.37,2013-01-26 10:27:00,
2013-01-26 04:32:00,31.4,23.8,30.31,West,270,0.0,0.0,73,0.00,CLR,SKC,0.00,WeatherDisplay:10.37,2013-01-26 10:32:00,
2013-01-26 04:37:00,31.2,23.6,30.31,West,270,0.0,0.0,73,0.00,CLR,SKC,0.00,WeatherDisplay:10.37,2013-01-26 10:37:00,
2013-01-26 04:42:00,31.0,23.7,30.30,West,270,0.0,2.0,74,0.00,CLR,SKC,0.00,WeatherDisplay:10.37,2013-01-26 10:42:00,
2013-01-26 04:47:00,31.1,23.5,30.30,West,270,0.0,0.0,73,0.00,CLR,SKC,0.00,WeatherDisplay:10.37,2013-01-26 10:47:00,
2013-01-26 04:52:00,31.2,23.6,30.30,West,270,0.0,0.0,73,0.00,CLR,SKC,0.00,WeatherDisplay:10.37,2013-01-26 10:52:00,
2013-01-26 04:57:00,31.4,23.7,30.30,WSW,258,0.0,2.0,73,0.00,CLR,SKC,0.00,WeatherDisplay:10.37,2013-01-26 10:57:00,
2013-01-26 05:02:00,31.6,24.0,30.30,South,174,0.0,2.0,73,0.00,CLR,SKC,0.00,WeatherDisplay:10.37,2013-01-26 11:02:00,
2013-01-26 05:07:00,31.6,23.6,30.31,South,173,0.0,0.0,72,0.00,CLR,SKC,0.00,WeatherDisplay:10.37,2013-01-26 11:07:00,
2013-01-26 05:12:00,31.7,23.7,30.31,South,173,0.0,0.0,72,0.00,CLR,SKC,0.00,WeatherDisplay:10.37,2013-01-26 11:12:00,
2013-01-26 05:17:00,31.7,23.7,30.31,South,173,0.0,0.0,72,0.00,CLR,SKC,0.00,WeatherDisplay:10.37,2013-01-26 11:17:00,
2013-01-26 05:22:00,31.8,23.8,30.31,SSE,150,1.0,3.0,72,0.00,CLR,SKC,0.00,WeatherDisplay:10.37,2013-01-26 11:22:00,
2013-01-26 05:27:00,32.0,23.7,30.31,SSE,155,0.0,5.0,71,0.00,CLR,SKC,0.00,WeatherDisplay:10.37,2013-01-26 11:27:00,
2013-01-26 05:32:00,31.9,23.9,30.31,SSE,168,0.0,2.0,72,0.00,CLR,SKC,0.00,WeatherDisplay:10.37,2013-01-26 11:32:00,
2013-01-26 05:37:00,32.0,24.0,30.32,SSE,157,1.0,5.0,72,0.00,CLR,SKC,0.00,WeatherDisplay:10.37,2013-01-26 11:37:00,
2013-01-26 05:42:00,32.3,23.9,30.32,SE,133,2.0,3.0,71,0.00,CLR,SKC,0.00,WeatherDisplay:10.37,2013-01-26 11:42:00,
2013-01-26 05:47:00,32.5,24.2,30.32,ESE,118,0.0,2.0,71,0.00,CLR,SKC,0.00,WeatherDisplay:10.37,2013-01-26 11:47:00,
2013-01-26 05:52:00,32.6,23.9,30.32,ESE,123,1.0,3.0,70,0.00,CLR,SKC,0.00,WeatherDisplay:10.37,2013-01-26 11:52:00,
2013-01-26 05:57:00,32.7,24.0,30.32,SE,143,0.0,2.0,70,0.00,CLR,SKC,0.00,WeatherDisplay:10.37,2013-01-26 11:57:00,
2013-01-26 06:02:00,32.8,24.1,30.32,SE,134,0.0,2.0,70,0.00,CLR,SKC,0.00,WeatherDisplay:10.37,2013-01-26 12:02:00,
2013-01-26 06:07:00,32.9,23.9,30.32,SE,125,0.0,2.0,69,0.00,CLR,SKC,0.00,WeatherDisplay:10.37,2013-01-26 12:07:00,
2013-01-26 06:12:00,33.0,24.0,30.32,East,101,1.0,3.0,69,0.00,CLR,SKC,0.00,WeatherDisplay:10.37,2013-01-26 12:12:00,
2013-01-26 06:17:00,33.2,24.1,30.32,East,92,2.0,5.0,69,0.00,CLR,SKC,0.00,WeatherDisplay:10.37,2013-01-26 12:17:00,
2013-01-26 06:22:00,33.2,24.1,30.32,East,99,1.0,3.0,69,0.00,CLR,SKC,0.00,WeatherDisplay:10.37,2013-01-26 12:22:00,
2013-01-26 06:27:00,33.2,24.1,30.32,East,100,1.0,3.0,69,0.00,CLR,SKC,0.00,WeatherDisplay:10.37,2013-01-26 12:27:00,
2013-01-26 06:32:00,33.2,23.8,30.33,ESE,121,1.0,2.0,68,0.00,CLR,SKC,0.00,WeatherDisplay:10.37,2013-01-26 12:32:00,
2013-01-26 06:37:00,33.2,24.2,30.33,ESE,114,0.0,5.0,69,0.00,CLR,SKC,0.00,WeatherDisplay:10.37,2013-01-26 12:37:00,
2013-01-26 06:42:00,33.2,24.1,30.33,East,84,1.0,7.0,69,0.00,CLR,SKC,0.00,WeatherDisplay:10.37,2013-01-26 12:42:00,
2013-01-26 06:47:00,33.2,23.8,30.33,East,98,1.0,5.0,68,0.00,CLR,SKC,0.00,WeatherDisplay:10.37,2013-01-26 12:47:00,
2013-01-26 06:52:00,33.3,23.9,30.33,SE,124,1.0,5.0,68,0.00,CLR,SKC,0.00,WeatherDisplay:10.37,2013-01-26 12:52:00,
2013-01-26 06:57:00,33.3,23.9,30.33,SE,141,2.0,5.0,68,0.00,CLR,SKC,0.00,WeatherDisplay:10.37,2013-01-26 12:57:00,
2013-01-26 07:02:00,33.4,24.0,30.33,SE,134,3.0,5.0,68,0.00,CLR,SKC,0.00,WeatherDisplay:10.37,2013-01-26 13:02:00,
2013-01-26 07:07:00,33.4,24.0,30.33,SE,135,0.0,7.0,68,0.00,CLR,SKC,0.00,WeatherDisplay:10.37,2013-01-26 13:07:00,
2013-01-26 07:12:00,33.4,24.0,30.33,SE,140,1.0,8.0,68,0.00,CLR,SKC,0.00,WeatherDisplay:10.37,2013-01-26 13:12:00,
2013-01-26 07:17:00,33.5,24.0,30.33,ESE,114,2.0,5.0,68,0.00,CLR,SKC,0.00,WeatherDisplay:10.37,2013-01-26 13:17:00,
2013-01-26 07:22:00,33.4,24.0,30.33,ESE,107,1.0,3.0,68,0.00,CLR,SKC,0.00,WeatherDisplay:10.37,2013-01-26 13:22:00,
2013-01-26 07:27:00,33.5,24.4,30.33,ESE,116,1.0,5.0,69,0.00,CLR,SKC,0.00,WeatherDisplay:10.37,2013-01-26 13:27:00,
2013-01-26 07:32:00,33.4,24.3,30.33,ESE,117,0.0,5.0,69,0.00,CLR,SKC,0.00,WeatherDisplay:10.37,2013-01-26 13:32:00,
2013-01-26 07:37:00,33.4,24.0,30.33,SE,132,1.0,8.0,68,0.00,CLR,SKC,0.00,WeatherDisplay:10.37,2013-01-26 13:37:00,
2013-01-26 07:42:00,33.4,24.0,30.33,SE,133,1.0,5.0,68,0.00,CLR,SKC,0.00,WeatherDisplay:10.37,2013-01-26 13:42:00,
2013-01-26 07:47:00,33.4,24.3,30.33,SE,133,1.0,5.0,69,0.00,CLR,SKC,0.00,WeatherDisplay:10.37,2013-01-26 13:47:00,
2013-01-26 07:52:00,33.4,24.3,30.33,SE,134,0.0,2.0,69,0.00,CLR,SKC,0.00,WeatherDisplay:10.37,2013-01-26 13:52:00,
2013-01-26 07:57:00,33.3,24.3,30.33,SE,125,1.0,5.0,69,0.00,CLR,SKC,0.00,WeatherDisplay:10.37,2013-01-26 13:57:00,
2013-01-26 08:02:00,33.4,24.3,30.33,ESE,122,2.0,10.0,69,0.00,CLR,SKC,0.00,WeatherDisplay:10.37,2013-01-26 14:02:00,
2013-01-26 08:07:00,33.5,24.4,30.33,ESE,116,1.0,7.0,69,0.00,CLR,SKC,0.00,WeatherDisplay:10.37,2013-01-26 14:07:00,
2013-01-26 08:12:00,33.6,24.5,30.33,ESE,112,2.0,7.0,69,0.00,CLR,SKC,0.00,WeatherDisplay:10.37,2013-01-26 14:12:00,
2013-01-26 08:17:00,33.7,24.6,30.33,ESE,110,2.0,7.0,69,0.00,CLR,SKC,0.00,WeatherDisplay:10.37,2013-01-26 14:17:00,
2013-01-26 08:22:00,33.8,24.7,30.33,ESE,114,5.0,10.0,69,0.00,CLR,SKC,0.00,WeatherDisplay:10.37,2013-01-26 14:22:00,
2013-01-26 08:27:00,34.0,24.6,30.33,SE,126,2.0,7.0,68,0.00,CLR,SKC,0.00,WeatherDisplay:10.37,2013-01-26 14:27:00,
2013-01-26 08:32:00,34.2,24.7,30.33,ESE,119,1.0,7.0,68,0.00,CLR,SKC,0.00,WeatherDisplay:10.37,2013-01-26 14:32:00,
2013-01-26 08:37:00,34.4,24.9,30.33,SE,138,3.0,7.0,68,0.00,CLR,SKC,0.00,WeatherDisplay:10.37,2013-01-26 14:37:00,
2013-01-26 08:42:00,34.6,25.1,30.33,SE,137,1.0,7.0,68,0.00,CLR,SKC,0.00,WeatherDisplay:10.37,2013-01-26 14:42:00,
2013-01-26 08:47:00,34.8,25.0,30.33,ESE,119,2.0,7.0,67,0.00,CLR,SKC,0.00,WeatherDisplay:10.37,2013-01-26 14:47:00,
2013-01-26 08:52:00,35.1,25.2,30.33,SE,130,2.0,12.0,67,0.00,CLR,SKC,0.00,WeatherDisplay:10.37,2013-01-26 14:52:00,
2013-01-26 08:57:00,35.3,25.0,30.33,SE,139,3.0,12.0,66,0.00,CLR,SKC,0.00,WeatherDisplay:10.37,2013-01-26 14:57:00,
2013-01-26 09:02:00,35.5,25.3,30.34,SE,126,3.0,9.0,66,0.00,CLR,SKC,0.00,WeatherDisplay:10.37,2013-01-26 15:02:00,
2013-01-26 09:07:00,35.8,25.6,30.33,ESE,123,5.0,10.0,66,0.00,CLR,SKC,0.00,WeatherDisplay:10.37,2013-01-26 15:07:00,
2013-01-26 09:12:00,36.1,25.4,30.33,ESE,113,5.0,11.0,65,0.00,CLR,SKC,0.00,WeatherDisplay:10.37,2013-01-26 15:12:00,
2013-01-26 09:17:00,36.4,25.4,30.33,SE,137,3.0,7.0,64,0.00,CLR,SKC,0.00,WeatherDisplay:10.37,2013-01-26 15:17:00,
2013-01-26 09:22:00,36.9,25.8,30.33,SE,134,6.0,10.0,64,0.00,CLR,SKC,0.00,WeatherDisplay:10.37,2013-01-26 15:22:00,
2013-01-26 09:32:00,37.5,25.6,30.33,ESE,122,6.0,8.0,62,0.00,CLR,SKC,0.00,WeatherDisplay:10.37,2013-01-26 15:32:00,
2013-01-26 09:42:00,38.5,26.2,30.33,SE,124,2.0,8.0,61,0.00,CLR,SKC,0.00,WeatherDisplay:10.37,2013-01-26 15:42:00,
2013-01-26 09:47:00,38.8,26.1,30.33,SSE,151,5.0,15.0,60,0.00,CLR,SKC,0.00,WeatherDisplay:10.37,2013-01-26 15:47:00,
2013-01-26 09:52:00,39.2,26.5,30.33,SE,127,2.0,8.0,60,0.00,CLR,SKC,0.00,WeatherDisplay:10.37,2013-01-26 15:52:00,
2013-01-26 10:02:00,40.0,26.8,30.33,ESE,114,2.0,7.0,59,0.00,CLR,SKC,0.00,WeatherDisplay:10.37,2013-01-26 16:02:00,
2013-01-26 10:07:00,40.5,26.9,30.33,South,171,1.0,7.0,58,0.00,CLR,SKC,0.00,WeatherDisplay:10.37,2013-01-26 16:07:00,
2013-01-26 10:12:00,41.3,27.6,30.33,SSE,153,1.0,7.0,58,0.00,CLR,SKC,0.00,WeatherDisplay:10.37,2013-01-26 16:12:00,
2013-01-26 10:17:00,42.3,27.2,30.34,ESE,122,6.0,10.0,55,0.00,CLR,SKC,0.00,WeatherDisplay:10.37,2013-01-26 16:17:00,
2013-01-26 10:22:00,43.3,27.3,30.33,SSE,149,3.0,7.0,53,0.00,CLR,SKC,0.00,WeatherDisplay:10.37,2013-01-26 16:22:00,
2013-01-26 10:27:00,43.9,27.4,30.33,SSE,156,7.0,12.0,52,0.00,CLR,SKC,0.00,WeatherDisplay:10.37,2013-01-26 16:27:00,
2013-01-26 10:32:00,44.4,26.9,30.33,SE,137,7.0,13.0,50,0.00,CLR,SKC,0.00,WeatherDisplay:10.37,2013-01-26 16:32:00,
2013-01-26 10:37:00,44.5,27.0,30.33,SE,129,8.0,13.0,50,0.00,CLR,SKC,0.00,WeatherDisplay:10.37,2013-01-26 16:37:00,
2013-01-26 10:42:00,44.8,26.3,30.33,SE,139,8.0,15.0,48,0.00,CLR,SKC,0.00,WeatherDisplay:10.37,2013-01-26 16:42:00,
2013-01-26 10:52:00,45.5,26.9,30.33,SE,145,7.0,13.0,48,0.00,CLR,SKC,0.00,WeatherDisplay:10.37,2013-01-26 16:52:00,
2013-01-26 11:02:00,46.3,26.7,30.33,SE,145,7.0,13.0,46,0.00,CLR,SKC,0.00,WeatherDisplay:10.37,2013-01-26 17:02:00,
2013-01-26 11:07:00,46.8,26.5,30.33,ESE,122,6.0,12.0,45,0.00,CLR,SKC,0.00,WeatherDisplay:10.37,2013-01-26 17:07:00,
2013-01-26 11:12:00,46.9,26.7,30.33,SE,140,7.0,12.0,45,0.00,CLR,SKC,0.00,WeatherDisplay:10.37,2013-01-26 17:12:00,
2013-01-26 11:17:00,47.2,26.9,30.33,SSE,148,5.0,10.0,45,0.00,CLR,SKC,0.00,WeatherDisplay:10.37,2013-01-26 17:17:00,
2013-01-26 11:22:00,47.8,26.4,30.33,SSE,164,8.0,15.0,43,0.00,CLR,SKC,0.00,WeatherDisplay:10.37,2013-01-26 17:22:00,
2013-01-26 11:27:00,47.7,26.8,30.33,SSE,154,12.0,15.0,44,0.00,CLR,SKC,0.00,WeatherDisplay:10.37,2013-01-26 17:27:00,
2013-01-26 11:32:00,47.7,26.9,30.32,SSE,152,10.0,16.0,44,0.00,CLR,SKC,0.00,WeatherDisplay:10.37,2013-01-26 17:32:00,
2013-01-26 11:42:00,48.3,26.8,30.32,SSE,153,7.0,18.0,43,0.00,CLR,SKC,0.00,WeatherDisplay:10.37,2013-01-26 17:42:00,
2013-01-26 11:47:00,48.3,26.9,30.31,SSE,150,9.0,12.0,43,0.00,CLR,SKC,0.00,WeatherDisplay:10.37,2013-01-26 17:47:00,
2013-01-26 11:52:00,48.9,26.8,30.31,SSE,165,6.0,13.0,42,0.00,CLR,SKC,0.00,WeatherDisplay:10.37,2013-01-26 17:52:00,
2013-01-26 11:57:00,49.3,27.2,30.31,SSE,159,8.0,13.0,42,0.00,CLR,SKC,0.00,WeatherDisplay:10.37,2013-01-26 17:57:00,
2013-01-26 12:07:00,50.1,27.3,30.30,SSE,168,6.0,10.0,41,0.00,CLR,SKC,0.00,WeatherDisplay:10.37,2013-01-26 18:07:00,
2013-01-26 12:12:00,50.1,26.7,30.30,SSW,197,12.0,13.0,40,0.00,CLR,SKC,0.00,WeatherDisplay:10.37,2013-01-26 18:12:00,
2013-01-26 12:22:00,49.9,27.1,30.29,SE,138,10.0,18.0,41,0.00,CLR,SKC,0.00,WeatherDisplay:10.37,2013-01-26 18:22:00,
2013-01-26 12:27:00,50.0,27.2,30.29,SE,144,5.0,15.0,41,0.00,CLR,SKC,0.00,WeatherDisplay:10.37,2013-01-26 18:27:00,
2013-01-26 12:32:00,50.4,27.0,30.29,SSE,155,12.0,21.0,40,0.00,CLR,SKC,0.00,WeatherDisplay:10.37,2013-01-26 18:32:00,
2013-01-26 12:42:00,50.2,27.4,30.28,South,169,9.0,18.0,41,0.00,CLR,SKC,0.00,WeatherDisplay:10.37,2013-01-26 18:42:00,
2013-01-26 12:47:00,50.2,27.4,30.27,SSE,160,14.0,20.0,41,0.00,CLR,SKC,0.00,WeatherDisplay:10.37,2013-01-26 18:47:00,
2013-01-26 12:52:00,50.6,27.2,30.27,SSE,159,9.0,13.0,40,0.00,CLR,SKC,0.00,WeatherDisplay:10.37,2013-01-26 18:52:00,
2013-01-26 13:02:00,51.9,27.7,30.27,SSE,150,8.0,15.0,39,0.00,CLR,SKC,0.00,WeatherDisplay:10.37,2013-01-26 19:02:00,
2013-01-26 13:07:00,52.3,28.1,30.26,SSE,161,13.0,16.0,39,0.00,CLR,SKC,0.00,WeatherDisplay:10.37,2013-01-26 19:07:00,
2013-01-26 13:12:00,52.1,27.9,30.26,ESE,115,8.0,21.0,39,0.00,CLR,SKC,0.00,WeatherDisplay:10.37,2013-01-26 19:12:00,
2013-01-26 13:17:00,52.5,27.6,30.25,SE,133,8.0,12.0,38,0.00,CLR,SKC,0.00,WeatherDisplay:10.37,2013-01-26 19:17:00,
2013-01-26 13:22:00,52.5,27.6,30.25,South,179,9.0,18.0,38,0.00,CLR,SKC,0.00,WeatherDisplay:10.37,2013-01-26 19:22:00,
2013-01-26 13:32:00,52.9,28.0,30.24,South,169,9.0,13.0,38,0.00,CLR,SKC,0.00,WeatherDisplay:10.37,2013-01-26 19:32:00,
2013-01-26 13:37:00,53.2,28.2,30.24,SSE,154,9.0,14.0,38,0.00,CLR,SKC,0.00,WeatherDisplay:10.37,2013-01-26 19:37:00,
2013-01-26 13:47:00,53.5,28.5,30.24,SSE,152,6.0,16.0,38,0.00,CLR,SKC,0.00,WeatherDisplay:10.37,2013-01-26 19:47:00,
2013-01-26 13:52:00,53.5,27.8,30.23,SSE,162,5.0,18.0,37,0.00,CLR,SKC,0.00,WeatherDisplay:10.37,2013-01-26 19:52:00,
2013-01-26 13:57:00,53.9,28.2,30.23,SE,143,10.0,18.0,37,0.00,CLR,SKC,0.00,WeatherDisplay:10.37,2013-01-26 19:57:00,
2013-01-26 14:02:00,53.8,28.8,30.23,SE,140,5.0,13.0,38,0.00,CLR,SKC,0.00,WeatherDisplay:10.37,2013-01-26 20:02:00,
2013-01-26 14:07:00,54.0,28.3,30.22,SSE,155,13.0,15.0,37,0.00,CLR,SKC,0.00,WeatherDisplay:10.37,2013-01-26 20:07:00,
2013-01-26 14:12:00,54.0,28.3,30.22,SSE,159,10.0,20.0,37,0.00,CLR,SKC,0.00,WeatherDisplay:10.37,2013-01-26 20:12:00,
2013-01-26 14:17:00,54.0,28.3,30.22,SSE,167,8.0,20.0,37,0.00,CLR,SKC,0.00,WeatherDisplay:10.37,2013-01-26 20:17:00,
2013-01-26 14:22:00,54.1,28.3,30.21,SSE,155,10.0,16.0,37,0.00,CLR,SKC,0.00,WeatherDisplay:10.37,2013-01-26 20:22:00,
2013-01-26 14:27:00,53.9,28.2,30.21,SE,129,13.0,16.0,37,0.00,CLR,SKC,0.00,WeatherDisplay:10.37,2013-01-26 20:27:00,
2013-01-26 14:37:00,54.7,28.9,30.21,SE,145,7.0,16.0,37,0.00,CLR,SKC,0.00,WeatherDisplay:10.37,2013-01-26 20:37:00,
2013-01-26 14:42:00,55.4,28.9,30.20,SE,142,8.0,22.0,36,0.00,CLR,SKC,0.00,WeatherDisplay:10.37,2013-01-26 20:42:00,
2013-01-26 14:47:00,55.8,28.5,30.20,SE,139,12.0,18.0,35,0.00,CLR,SKC,0.00,WeatherDisplay:10.37,2013-01-26 20:47:00,
2013-01-26 14:52:00,56.0,28.7,30.20,SE,138,2.0,12.0,35,0.00,CLR,SKC,0.00,WeatherDisplay:10.37,2013-01-26 20:52:00,
2013-01-26 14:57:00,56.4,28.3,30.20,SSE,148,12.0,18.0,34,0.00,CLR,SKC,0.00,WeatherDisplay:10.37,2013-01-26 20:57:00,
2013-01-26 15:07:00,56.5,28.5,30.21,SSE,149,6.0,15.0,34,0.00,CLR,SKC,0.00,WeatherDisplay:10.37,2013-01-26 21:07:00,
2013-01-26 15:12:00,56.6,27.8,30.20,SSE,159,8.0,20.0,33,0.00,CLR,SKC,0.00,WeatherDisplay:10.37,2013-01-26 21:12:00,
2013-01-26 15:22:00,56.8,27.2,30.20,SE,142,15.0,22.0,32,0.00,CLR,SKC,0.00,WeatherDisplay:10.37,2013-01-26 21:22:00,
2013-01-26 15:27:00,56.5,27.0,30.20,SSE,163,7.0,21.0,32,0.00,CLR,SKC,0.00,WeatherDisplay:10.37,2013-01-26 21:27:00,
2013-01-26 15:32:00,56.8,27.2,30.21,South,186,5.0,15.0,32,0.00,CLR,SKC,0.00,WeatherDisplay:10.37,2013-01-26 21:32:00,
2013-01-26 15:42:00,56.2,27.5,30.20,SSE,157,7.0,15.0,33,0.00,CLR,SKC,0.00,WeatherDisplay:10.37,2013-01-26 21:42:00,
2013-01-26 15:47:00,56.2,27.5,30.20,SE,142,5.0,15.0,33,0.00,CLR,SKC,0.00,WeatherDisplay:10.37,2013-01-26 21:47:00,
2013-01-26 15:52:00,56.4,27.6,30.20,SE,143,8.0,16.0,33,0.00,CLR,SKC,0.00,WeatherDisplay:10.37,2013-01-26 21:52:00,
2013-01-26 16:02:00,56.1,27.4,30.19,SSE,158,8.0,16.0,33,0.00,CLR,SKC,0.00,WeatherDisplay:10.37,2013-01-26 22:02:00,
2013-01-26 16:07:00,56.0,27.3,30.19,SSE,155,9.0,18.0,33,0.00,CLR,SKC,0.00,WeatherDisplay:10.37,2013-01-26 22:07:00,
2013-01-26 16:12:00,55.7,27.7,30.19,SE,146,9.0,16.0,34,0.00,CLR,SKC,0.00,WeatherDisplay:10.37,2013-01-26 22:12:00,
2013-01-26 16:17:00,55.7,27.7,30.19,SSE,159,13.0,16.0,34,0.00,CLR,SKC,0.00,WeatherDisplay:10.37,2013-01-26 22:17:00,
2013-01-26 16:22:00,55.6,27.7,30.19,SSE,150,13.0,16.0,34,0.00,CLR,SKC,0.00,WeatherDisplay:10.37,2013-01-26 22:22:00,
2013-01-26 16:27:00,55.5,27.6,30.19,SE,136,9.0,18.0,34,0.00,CLR,SKC,0.00,WeatherDisplay:10.37,2013-01-26 22:27:00,
2013-01-26 16:32:00,55.4,27.5,30.18,SE,132,8.0,18.0,34,0.00,CLR,SKC,0.00,WeatherDisplay:10.37,2013-01-26 22:32:00,
2013-01-26 16:37:00,55.3,27.4,30.18,SE,141,12.0,16.0,34,0.00,CLR,SKC,0.00,WeatherDisplay:10.37,2013-01-26 22:37:00,
2013-01-26 16:42:00,55.0,27.8,30.18,SE,129,6.0,16.0,35,0.00,CLR,SKC,0.00,WeatherDisplay:10.37,2013-01-26 22:42:00,
2013-01-26 16:47:00,54.9,27.7,30.18,SE,134,8.0,13.0,35,0.00,CLR,SKC,0.00,WeatherDisplay:10.37,2013-01-26 22:47:00,
2013-01-26 16:52:00,54.7,27.6,30.18,SE,139,9.0,18.0,35,0.00,CLR,SKC,0.00,WeatherDisplay:10.37,2013-01-26 22:52:00,
2013-01-26 16:57:00,54.6,27.4,30.18,SE,146,9.0,16.0,35,0.00,CLR,SKC,0.00,WeatherDisplay:10.37,2013-01-26 22:57:00,
2013-01-26 17:02:00,54.4,28.0,30.17,SE,138,5.0,13.0,36,0.00,CLR,SKC,0.00,WeatherDisplay:10.37,2013-01-26 23:02:00,
2013-01-26 17:07:00,54.1,27.7,30.17,SE,138,5.0,11.0,36,0.00,CLR,SKC,0.00,WeatherDisplay:10.37,2013-01-26 23:07:00,
2013-01-26 17:12:00,53.8,28.1,30.17,SSE,151,5.0,10.0,37,0.00,CLR,SKC,0.00,WeatherDisplay:10.37,2013-01-26 23:12:00,
2013-01-26 17:22:00,53.2,27.6,30.17,SE,135,3.0,8.0,37,0.00,CLR,SKC,0.00,WeatherDisplay:10.37,2013-01-26 23:22:00,
2013-01-26 17:27:00,53.0,28.1,30.17,SE,135,5.0,10.0,38,0.00,CLR,SKC,0.00,WeatherDisplay:10.37,2013-01-26 23:27:00,
2013-01-26 17:32:00,52.7,27.8,30.17,SE,128,1.0,8.0,38,0.00,CLR,SKC,0.00,WeatherDisplay:10.37,2013-01-26 23:32:00,
2013-01-26 17:42:00,52.0,27.8,30.17,SE,129,2.0,7.0,39,0.00,CLR,SKC,0.00,WeatherDisplay:10.37,2013-01-26 23:42:00,
2013-01-26 17:52:00,51.2,28.2,30.17,SE,128,6.0,10.0,41,0.00,CLR,SKC,0.00,WeatherDisplay:10.37,2013-01-26 23:52:00,
2013-01-26 18:02:00,50.6,28.3,30.17,ESE,117,5.0,8.0,42,0.00,CLR,SKC,0.00,WeatherDisplay:10.37,2013-01-27 00:02:00,
2013-01-26 18:07:00,50.2,28.5,30.17,ESE,115,1.0,5.0,43,0.00,CLR,SKC,0.00,WeatherDisplay:10.37,2013-01-27 00:07:00,
2013-01-26 18:12:00,49.8,28.7,30.17,SE,128,5.0,7.0,44,0.00,CLR,SKC,0.00,WeatherDisplay:10.37,2013-01-27 00:12:00,
2013-01-26 18:22:00,49.0,28.6,30.17,ESE,122,3.0,7.0,45,0.00,CLR,SKC,0.00,WeatherDisplay:10.37,2013-01-27 00:22:00,
2013-01-26 18:32:00,48.5,28.1,30.17,SE,131,3.0,7.0,45,0.00,CLR,SKC,0.00,WeatherDisplay:10.37,2013-01-27 00:32:00,
2013-01-26 18:37:00,48.3,28.4,30.17,SE,130,3.0,7.0,46,0.00,CLR,SKC,0.00,WeatherDisplay:10.37,2013-01-27 00:37:00,
2013-01-26 18:42:00,48.0,28.2,30.17,ESE,122,5.0,7.0,46,0.00,CLR,SKC,0.00,WeatherDisplay:10.37,2013-01-27 00:42:00,
2013-01-26 18:47:00,47.9,28.1,30.17,ESE,117,8.0,12.0,46,0.00,CLR,SKC,0.00,WeatherDisplay:10.37,2013-01-27 00:47:00,
2013-01-26 18:52:00,47.8,28.0,30.17,SE,141,7.0,13.0,46,0.00,CLR,SKC,0.00,WeatherDisplay:10.37,2013-01-27 00:52:00,
2013-01-26 18:57:00,47.8,28.0,30.17,SE,136,6.0,10.0,46,0.00,CLR,SKC,0.00,WeatherDisplay:10.37,2013-01-27 00:57:00,
2013-01-26 19:02:00,47.6,27.8,30.16,SE,131,7.0,15.0,46,0.00,CLR,SKC,0.00,WeatherDisplay:10.37,2013-01-27 01:02:00,
2013-01-26 19:07:00,47.6,28.4,30.17,SE,128,6.0,10.0,47,0.00,CLR,SKC,0.00,WeatherDisplay:10.37,2013-01-27 01:07:00,
2013-01-26 19:12:00,47.6,27.8,30.17,SE,130,8.0,10.0,46,0.00,CLR,SKC,0.00,WeatherDisplay:10.37,2013-01-27 01:12:00,
2013-01-26 19:17:00,47.6,27.8,30.17,SE,133,6.0,13.0,46,0.00,CLR,SKC,0.00,WeatherDisplay:10.37,2013-01-27 01:17:00,
2013-01-26 19:22:00,47.6,27.8,30.17,SE,137,8.0,12.0,46,0.00,CLR,SKC,0.00,WeatherDisplay:10.37,2013-01-27 01:22:00,
2013-01-26 19:32:00,47.5,27.7,30.17,SE,126,5.0,13.0,46,0.00,CLR,SKC,0.00,WeatherDisplay:10.37,2013-01-27 01:32:00,
2013-01-26 19:42:00,47.4,28.2,30.17,SSE,148,8.0,13.0,47,0.00,CLR,SKC,0.00,WeatherDisplay:10.37,2013-01-27 01:42:00,
2013-01-26 19:52:00,47.2,28.0,30.17,SE,133,7.0,12.0,47,0.00,CLR,SKC,0.00,WeatherDisplay:10.37,2013-01-27 01:52:00,
2013-01-26 20:02:00,47.1,27.9,30.17,ESE,117,6.0,15.0,47,0.00,CLR,SKC,0.00,WeatherDisplay:10.37,2013-01-27 02:02:00,
2013-01-26 20:07:00,46.9,28.2,30.17,SE,138,5.0,16.0,48,0.00,CLR,SKC,0.00,WeatherDisplay:10.37,2013-01-27 02:07:00,
2013-01-26 20:12:00,46.8,28.1,30.17,SE,146,8.0,15.0,48,0.00,CLR,SKC,0.00,WeatherDisplay:10.37,2013-01-27 02:12:00,
2013-01-26 20:17:00,46.7,28.0,30.16,SE,141,10.0,16.0,48,0.00,CLR,SKC,0.00,WeatherDisplay:10.37,2013-01-27 02:17:00,
2013-01-26 20:22:00,46.6,28.0,30.16,SE,129,7.0,13.0,48,0.00,CLR,SKC,0.00,WeatherDisplay:10.37,2013-01-27 02:22:00,
2013-01-26 20:27:00,46.5,27.9,30.16,SE,137,7.0,12.0,48,0.00,CLR,SKC,0.00,WeatherDisplay:10.37,2013-01-27 02:27:00,
2013-01-26 20:32:00,46.4,28.3,30.16,SE,140,7.0,12.0,49,0.00,CLR,SKC,0.00,WeatherDisplay:10.37,2013-01-27 02:32:00,
2013-01-26 20:42:00,46.3,28.1,30.16,SE,127,7.0,15.0,49,0.00,CLR,SKC,0.00,WeatherDisplay:10.37,2013-01-27 02:42:00,
2013-01-26 20:47:00,46.3,28.1,30.16,SE,131,6.0,13.0,49,0.00,CLR,SKC,0.00,WeatherDisplay:10.37,2013-01-27 02:47:00,
2013-01-26 20:52:00,46.2,28.1,30.16,SE,126,3.0,10.0,49,0.00,CLR,SKC,0.00,WeatherDisplay:10.37,2013-01-27 02:52:00,
2013-01-26 20:57:00,46.0,27.9,30.16,SE,134,5.0,12.0,49,0.00,CLR,SKC,0.00,WeatherDisplay:10.37,2013-01-27 02:57:00,
2013-01-26 21:02:00,45.9,28.3,30.16,SE,139,6.0,10.0,50,0.00,CLR,SKC,0.00,WeatherDisplay:10.37,2013-01-27 03:02:00,
2013-01-26 21:07:00,45.8,28.2,30.15,SE,129,7.0,12.0,50,0.00,CLR,SKC,0.00,WeatherDisplay:10.37,2013-01-27 03:07:00,
2013-01-26 21:12:00,45.7,28.1,30.15,ESE,111,7.0,13.0,50,0.00,CLR,SKC,0.00,WeatherDisplay:10.37,2013-01-27 03:12:00,
2013-01-26 21:17:00,45.6,28.0,30.15,SE,135,7.0,10.0,50,0.00,CLR,SKC,0.00,WeatherDisplay:10.37,2013-01-27 03:17:00,
2013-01-26 21:22:00,45.5,28.4,30.15,ESE,120,7.0,12.0,51,0.00,CLR,SKC,0.00,WeatherDisplay:10.37,2013-01-27 03:22:00,
2013-01-26 21:32:00,45.1,28.0,30.15,SE,125,3.0,12.0,51,0.00,CLR,SKC,0.00,WeatherDisplay:10.37,2013-01-27 03:32:00,
2013-01-26 21:37:00,44.9,27.9,30.14,ESE,122,6.0,12.0,51,0.00,CLR,SKC,0.00,WeatherDisplay:10.37,2013-01-27 03:37:00,
2013-01-26 21:42:00,44.8,27.8,30.14,SE,124,8.0,13.0,51,0.00,CLR,SKC,0.00,WeatherDisplay:10.37,2013-01-27 03:42:00,
2013-01-26 21:47:00,44.8,28.2,30.13,SE,139,7.0,12.0,52,0.00,CLR,SKC,0.00,WeatherDisplay:10.37,2013-01-27 03:47:00,
2013-01-26 21:52:00,44.7,27.7,30.13,SSE,151,6.0,8.0,51,0.00,CLR,SKC,0.00,WeatherDisplay:10.37,2013-01-27 03:52:00,
2013-01-26 22:02:00,44.5,28.0,30.13,SE,131,9.0,15.0,52,0.00,CLR,SKC,0.00,WeatherDisplay:10.37,2013-01-27 04:02:00,
2013-01-26 22:07:00,44.4,27.9,30.13,ESE,115,5.0,12.0,52,0.00,CLR,SKC,0.00,WeatherDisplay:10.37,2013-01-27 04:07:00,
2013-01-26 22:12:00,44.4,27.8,30.13,ESE,122,7.0,10.0,52,0.00,CLR,SKC,0.00,WeatherDisplay:10.37,2013-01-27 04:12:00,
2013-01-26 22:17:00,44.4,27.9,30.12,SE,125,5.0,13.0,52,0.00,CLR,SKC,0.00,WeatherDisplay:10.37,2013-01-27 04:17:00,
2013-01-26 22:22:00,44.5,27.5,30.13,SE,131,7.0,13.0,51,0.00,CLR,SKC,0.00,WeatherDisplay:10.37,2013-01-27 04:22:00,
2013-01-26 22:27:00,44.7,27.7,30.13,SSE,148,7.0,12.0,51,0.00,CLR,SKC,0.00,WeatherDisplay:10.37,2013-01-27 04:27:00,
2013-01-26 22:32:00,44.9,27.4,30.13,SE,124,12.0,20.0,50,0.00,CLR,SKC,0.00,WeatherDisplay:10.37,2013-01-27 04:32:00,
2013-01-26 22:42:00,45.3,27.8,30.13,SSE,149,5.0,13.0,50,0.00,CLR,SKC,0.00,WeatherDisplay:10.37,2013-01-27 04:42:00,
2013-01-26 22:47:00,45.5,27.4,30.12,SE,135,7.0,16.0,49,0.00,CLR,SKC,0.00,WeatherDisplay:10.37,2013-01-27 04:47:00,
2013-01-26 22:52:00,45.7,27.6,30.12,SSE,148,8.0,16.0,49,0.00,CLR,SKC,0.00,WeatherDisplay:10.37,2013-01-27 04:52:00,
2013-01-26 23:02:00,46.0,27.4,30.12,SSE,147,5.0,13.0,48,0.00,CLR,SKC,0.00,WeatherDisplay:10.37,2013-01-27 05:02:00,
2013-01-26 23:07:00,46.1,27.0,30.12,SSE,150,7.0,20.0,47,0.00,CLR,SKC,0.00,WeatherDisplay:10.37,2013-01-27 05:07:00,
2013-01-26 23:12:00,46.3,27.1,30.12,SE,144,8.0,15.0,47,0.00,CLR,SKC,0.00,WeatherDisplay:10.37,2013-01-27 05:12:00,
2013-01-26 23:17:00,46.3,26.7,30.12,ESE,123,12.0,18.0,46,0.00,CLR,SKC,0.00,WeatherDisplay:10.37,2013-01-27 05:17:00,
2013-01-26 23:22:00,46.4,26.7,30.13,ESE,119,9.0,16.0,46,0.00,CLR,SKC,0.00,WeatherDisplay:10.37,2013-01-27 05:22:00,
2013-01-26 23:27:00,46.3,26.6,30.13,SSE,157,7.0,18.0,46,0.00,CLR,SKC,0.00,WeatherDisplay:10.37,2013-01-27 05:27:00,
2013-01-26 23:32:00,46.2,27.1,30.13,SSE,165,10.0,16.0,47,0.00,CLR,SKC,0.00,WeatherDisplay:10.37,2013-01-27 05:32:00,
2013-01-26 23:37:00,46.0,26.9,30.12,SSE,147,12.0,18.0,47,0.00,CLR,SKC,0.00,WeatherDisplay:10.37,2013-01-27 05:37:00,
2013-01-26 23:42:00,45.8,27.2,30.12,SSE,159,6.0,17.0,48,0.00,CLR,SKC,0.00,WeatherDisplay:10.37,2013-01-27 05:42:00,
2013-01-26 23:47:00,45.6,27.0,30.12,SSE,166,9.0,15.0,48,0.00,CLR,SKC,0.00,WeatherDisplay:10.37,2013-01-27 05:47:00,
2013-01-26 23:52:00,45.5,26.9,30.12,SE,138,10.0,16.0,48,0.00,CLR,SKC,0.00,WeatherDisplay:10.37,2013-01-27 05:52:00,
2013-01-26 23:57:00,45.4,27.3,30.12,SSE,149,9.0,18.0,49,0.00,CLR,SKC,0.00,WeatherDisplay:10.37,2013-01-27 05:57:00,